Back to catalog

COSMOS 1196

AliveNavigationLEO
NORAD 11879·PAYLOAD·🇷🇺 Russia

Launched Jul 9, 1980 from Plesetsk Cosmodrome

Loading…

Next Passes (next 24 hours)

TLE

FreshSource: Space-Track

Epoch: Sep 14, 2026, 12:15 UTC

1 11879U 80058E   26257.51054877 -.00000022  00000-0 -42884-4 0  9992
2 11879  74.0148 265.6150 0004033  91.3032 344.1239 12.48411523583569

Track COSMOS 1196 in real time with AllMySat

Download on the App Store